Time,TemperatureF,DewpointF,PressureIn,WindDirection,WindDirectionDegrees,WindSpeedMPH,WindSpeedGustMPH,Humidity,HourlyPrecipIn,Conditions,Clouds,dailyrainin,SoftwareType,DateUTC
2013-02-10 00:00:00,-7.0,-99.9,0.00,East,86,0.1,0.0,-99,0.00,NA,NA,-99.99,WeatherLink_script,2013-02-10 05:00:00,
2013-02-10 00:05:00,-7.3,-99.9,0.00,NNW,327,1.3,1.3,-99,0.00,NA,NA,-99.99,WeatherLink_script,2013-02-10 05:05:00,
2013-02-10 00:11:00,-6.7,-99.9,0.00,NW,315,0.0,1.0,-99,0.00,NA,NA,-99.99,WeatherLink_script,2013-02-10 05:11:00,
2013-02-10 00:16:00,-6.5,-99.9,0.00,NW,315,0.0,1.0,-99,0.00,NA,NA,-99.99,WeatherLink_script,2013-02-10 05:16:00,
2013-02-10 00:21:00,-6.8,-99.9,0.00,NE,48,0.0,1.0,-99,0.00,NA,NA,-99.99,WeatherLink_script,2013-02-10 05:21:00,
2013-02-10 00:27:00,-9.3,-99.9,0.00,NNW,347,1.8,2.0,-99,0.00,NA,NA,-99.99,WeatherLink_script,2013-02-10 05:27:00,
2013-02-10 00:32:00,-9.4,-99.9,0.00,North,357,0.2,2.0,-99,0.00,NA,NA,-99.99,WeatherLink_script,2013-02-10 05:32:00,
2013-02-10 00:37:00,-8.7,-99.9,0.00,NNW,346,0.7,2.0,-99,0.00,NA,NA,-99.99,WeatherLink_script,2013-02-10 05:37:00,
2013-02-10 00:43:00,-8.6,-99.9,0.00,NNE,21,0.8,2.0,-99,0.00,NA,NA,-99.99,WeatherLink_script,2013-02-10 05:43:00,
2013-02-10 00:48:00,-8.8,-99.9,0.00,NNE,17,1.5,2.0,-99,0.00,NA,NA,-99.99,WeatherLink_script,2013-02-10 05:48:00,
2013-02-10 00:53:00,-9.5,-99.9,0.00,NNE,14,0.9,2.0,-99,0.00,NA,NA,-99.99,WeatherLink_script,2013-02-10 05:53:00,
2013-02-10 00:59:00,-9.8,-99.9,0.00,North,0,0.6,2.0,-99,0.00,NA,NA,-99.99,WeatherLink_script,2013-02-10 05:59:00,
2013-02-10 01:04:00,-9.9,-99.9,0.00,WNW,292,0.0,0.0,-99,0.00,NA,NA,-99.99,WeatherLink_script,2013-02-10 06:04:00,
2013-02-10 01:09:00,-9.7,-99.9,0.00,NNW,337,0.9,1.0,-99,0.00,NA,NA,-99.99,WeatherLink_script,2013-02-10 06:09:00,
2013-02-10 01:15:00,-10.0,-99.9,0.00,NW,326,0.8,1.0,-99,0.00,NA,NA,-99.99,WeatherLink_script,2013-02-10 06:15:00,
2013-02-10 01:20:00,-10.6,-99.9,0.00,North,354,1.3,1.3,-99,0.00,NA,NA,-99.99,WeatherLink_script,2013-02-10 06:20:00,
2013-02-10 01:25:00,-10.6,-99.9,0.00,NNE,22,0.0,1.0,-99,0.00,NA,NA,-99.99,WeatherLink_script,2013-02-10 06:25:00,
2013-02-10 01:31:00,-10.2,-99.9,0.00,North,8,1.0,1.0,-99,0.00,NA,NA,-99.99,WeatherLink_script,2013-02-10 06:31:00,
2013-02-10 01:36:00,-10.5,-99.9,0.00,NNE,22,1.0,1.0,-99,0.00,NA,NA,-99.99,WeatherLink_script,2013-02-10 06:36:00,
2013-02-10 01:41:00,-11.1,-99.9,0.00,NNW,337,0.0,1.0,-99,0.00,NA,NA,-99.99,WeatherLink_script,2013-02-10 06:41:00,
2013-02-10 01:47:00,-11.1,-99.9,0.00,NNW,337,0.0,1.0,-99,0.00,NA,NA,-99.99,WeatherLink_script,2013-02-10 06:47:00,
2013-02-10 01:52:00,-10.6,-99.9,0.00,NNW,337,0.0,1.0,-99,0.00,NA,NA,-99.99,WeatherLink_script,2013-02-10 06:52:00,
2013-02-10 01:57:00,-10.9,-99.9,0.00,NE,44,0.0,0.0,-99,0.00,NA,NA,-99.99,WeatherLink_script,2013-02-10 06:57:00,
2013-02-10 02:03:00,-11.1,-99.9,0.00,NW,318,0.5,1.0,-99,0.00,NA,NA,-99.99,WeatherLink_script,2013-02-10 07:03:00,
2013-02-10 02:08:00,-11.0,-99.9,0.00,NW,315,0.0,1.0,-99,0.00,NA,NA,-99.99,WeatherLink_script,2013-02-10 07:08:00,
2013-02-10 02:13:00,-10.9,-99.9,0.00,SSE,160,0.0,1.0,-99,0.00,NA,NA,-99.99,WeatherLink_script,2013-02-10 07:13:00,
2013-02-10 02:19:00,-11.3,-99.9,0.00,SSE,157,0.0,0.0,-99,0.00,NA,NA,-99.99,WeatherLink_script,2013-02-10 07:19:00,
2013-02-10 02:24:00,-10.9,-99.9,0.00,WNW,289,0.3,1.0,-99,0.00,NA,NA,-99.99,WeatherLink_script,2013-02-10 07:24:00,
2013-02-10 02:29:00,-11.1,-99.9,0.00,East,96,0.7,1.0,-99,0.00,NA,NA,-99.99,WeatherLink_script,2013-02-10 07:29:00,
2013-02-10 02:35:00,-12.3,-99.9,0.00,NNW,342,1.5,2.0,-99,0.00,NA,NA,-99.99,WeatherLink_script,2013-02-10 07:35:00,
2013-02-10 02:40:00,-11.4,-99.9,0.00,NW,319,0.5,2.0,-99,0.00,NA,NA,-99.99,WeatherLink_script,2013-02-10 07:40:00,
2013-02-10 02:45:00,-11.6,-99.9,0.00,North,359,1.2,2.0,-99,0.00,NA,NA,-99.99,WeatherLink_script,2013-02-10 07:45:00,
2013-02-10 02:51:00,-12.8,-99.9,0.00,North,359,1.4,1.4,-99,0.00,NA,NA,-99.99,WeatherLink_script,2013-02-10 07:51:00,
2013-02-10 02:56:00,-13.2,-99.9,0.00,ENE,61,0.0,2.0,-99,0.00,NA,NA,-99.99,WeatherLink_script,2013-02-10 07:56:00,
2013-02-10 03:01:00,-13.3,-99.9,0.00,North,350,1.3,2.0,-99,0.00,NA,NA,-99.99,WeatherLink_script,2013-02-10 08:01:00,
2013-02-10 03:07:00,-13.5,-99.9,0.00,North,353,1.1,2.0,-99,0.00,NA,NA,-99.99,WeatherLink_script,2013-02-10 08:07:00,
2013-02-10 03:12:00,-13.4,-99.9,0.00,North,349,0.8,1.0,-99,0.00,NA,NA,-99.99,WeatherLink_script,2013-02-10 08:12:00,
2013-02-10 03:17:00,-13.1,-99.9,0.00,East,86,0.5,1.0,-99,0.00,NA,NA,-99.99,WeatherLink_script,2013-02-10 08:17:00,
2013-02-10 03:23:00,-13.7,-99.9,0.00,NNW,330,0.9,1.0,-99,0.00,NA,NA,-99.99,WeatherLink_script,2013-02-10 08:23:00,
2013-02-10 03:28:00,-13.8,-99.9,0.00,North,354,1.1,1.1,-99,0.00,NA,NA,-99.99,WeatherLink_script,2013-02-10 08:28:00,
2013-02-10 03:33:00,-14.0,-99.9,0.00,NNE,24,1.1,1.1,-99,0.00,NA,NA,-99.99,WeatherLink_script,2013-02-10 08:33:00,
2013-02-10 03:39:00,-13.8,-99.9,0.00,NW,304,0.7,1.0,-99,0.00,NA,NA,-99.99,WeatherLink_script,2013-02-10 08:39:00,
2013-02-10 03:44:00,-13.9,-99.9,0.00,NW,314,0.0,1.0,-99,0.00,NA,NA,-99.99,WeatherLink_script,2013-02-10 08:44:00,
2013-02-10 03:49:00,-14.3,-99.9,0.00,North,358,0.6,1.0,-99,0.00,NA,NA,-99.99,WeatherLink_script,2013-02-10 08:49:00,
2013-02-10 03:55:00,-13.6,-99.9,0.00,ENE,67,0.2,1.0,-99,0.00,NA,NA,-99.99,WeatherLink_script,2013-02-10 08:55:00,
2013-02-10 04:00:00,-14.0,-99.9,0.00,NW,323,1.6,1.6,-99,0.00,NA,NA,-99.99,WeatherLink_script,2013-02-10 09:00:00,
2013-02-10 04:05:00,-13.5,-99.9,0.00,NW,315,0.5,2.0,-99,0.00,NA,NA,-99.99,WeatherLink_script,2013-02-10 09:05:00,
2013-02-10 04:11:00,-13.3,-99.9,0.00,SE,134,0.0,2.0,-99,0.00,NA,NA,-99.99,WeatherLink_script,2013-02-10 09:11:00,
2013-02-10 04:16:00,-13.6,-99.9,0.00,ESE,104,0.2,2.0,-99,0.00,NA,NA,-99.99,WeatherLink_script,2013-02-10 09:16:00,
2013-02-10 04:21:00,-15.3,-99.9,0.00,North,354,1.3,2.0,-99,0.00,NA,NA,-99.99,WeatherLink_script,2013-02-10 09:21:00,
2013-02-10 04:27:00,-15.6,-99.9,0.00,NE,49,1.0,2.0,-99,0.00,NA,NA,-99.99,WeatherLink_script,2013-02-10 09:27:00,
2013-02-10 04:32:00,-15.3,-99.9,0.00,NW,316,1.6,2.0,-99,0.00,NA,NA,-99.99,WeatherLink_script,2013-02-10 09:32:00,
2013-02-10 04:37:00,-15.4,-99.9,0.00,NNE,22,0.0,0.0,-99,0.00,NA,NA,-99.99,WeatherLink_script,2013-02-10 09:37:00,
2013-02-10 04:43:00,-15.6,-99.9,0.00,NNE,22,0.0,0.0,-99,0.00,NA,NA,-99.99,WeatherLink_script,2013-02-10 09:43:00,
2013-02-10 04:48:00,-15.0,-99.9,0.00,SE,134,0.0,0.0,-99,0.00,NA,NA,-99.99,WeatherLink_script,2013-02-10 09:48:00,
2013-02-10 04:53:00,-14.7,-99.9,0.00,SE,134,0.0,0.0,-99,0.00,NA,NA,-99.99,WeatherLink_script,2013-02-10 09:53:00,
2013-02-10 04:59:00,-14.6,-99.9,0.00,SE,135,0.0,0.0,-99,0.00,NA,NA,-99.99,WeatherLink_script,2013-02-10 09:59:00,
2013-02-10 05:04:00,-14.5,-99.9,0.00,North,349,0.9,1.0,-99,0.00,NA,NA,-99.99,WeatherLink_script,2013-02-10 10:04:00,
2013-02-10 05:09:00,-14.7,-99.9,0.00,North,358,0.0,1.0,-99,0.00,NA,NA,-99.99,WeatherLink_script,2013-02-10 10:09:00,
2013-02-10 05:15:00,-15.0,-99.9,0.00,North,349,1.2,1.2,-99,0.00,NA,NA,-99.99,WeatherLink_script,2013-02-10 10:15:00,
2013-02-10 05:20:00,-15.9,-99.9,0.00,North,6,1.5,2.0,-99,0.00,NA,NA,-99.99,WeatherLink_script,2013-02-10 10:20:00,
2013-02-10 05:25:00,-17.2,-99.9,0.00,NNW,336,1.6,2.0,-99,0.00,NA,NA,-99.99,WeatherLink_script,2013-02-10 10:25:00,
2013-02-10 05:31:00,-16.2,-99.9,0.00,NW,325,1.4,2.0,-99,0.00,NA,NA,-99.99,WeatherLink_script,2013-02-10 10:31:00,
2013-02-10 05:36:00,-16.0,-99.9,0.00,SE,126,1.2,1.2,-99,0.00,NA,NA,-99.99,WeatherLink_script,2013-02-10 10:36:00,
2013-02-10 05:41:00,-15.6,-99.9,0.00,NNE,22,0.0,1.0,-99,0.00,NA,NA,-99.99,WeatherLink_script,2013-02-10 10:41:00,
2013-02-10 05:47:00,-16.0,-99.9,0.00,ESE,116,0.0,1.0,-99,0.00,NA,NA,-99.99,WeatherLink_script,2013-02-10 10:47:00,
2013-02-10 05:52:00,-15.5,-99.9,0.00,West,270,0.0,0.0,-99,0.00,NA,NA,-99.99,WeatherLink_script,2013-02-10 10:52:00,
2013-02-10 05:57:00,-15.9,-99.9,0.00,West,270,0.0,0.0,-99,0.00,NA,NA,-99.99,WeatherLink_script,2013-02-10 10:57:00,
2013-02-10 06:03:00,-15.9,-99.9,0.00,West,270,0.0,0.0,-99,0.00,NA,NA,-99.99,WeatherLink_script,2013-02-10 11:03:00,
2013-02-10 06:08:00,-16.0,-99.9,0.00,NNW,337,0.0,0.0,-99,0.00,NA,NA,-99.99,WeatherLink_script,2013-02-10 11:08:00,
2013-02-10 06:13:00,-16.2,-99.9,0.00,NNW,337,0.8,1.0,-99,0.00,NA,NA,-99.99,WeatherLink_script,2013-02-10 11:13:00,
2013-02-10 06:19:00,-16.4,-99.9,0.00,NNW,337,0.6,1.0,-99,0.00,NA,NA,-99.99,WeatherLink_script,2013-02-10 11:19:00,
2013-02-10 06:24:00,-17.5,-99.9,0.00,North,1,1.5,1.5,-99,0.00,NA,NA,-99.99,WeatherLink_script,2013-02-10 11:24:00,
2013-02-10 06:29:00,-17.2,-99.9,0.00,North,4,1.0,1.0,-99,0.00,NA,NA,-99.99,WeatherLink_script,2013-02-10 11:29:00,
2013-02-10 06:35:00,-18.0,-99.9,0.00,NNW,337,1.2,1.2,-99,0.00,NA,NA,-99.99,WeatherLink_script,2013-02-10 11:35:00,
2013-02-10 06:40:00,-17.7,-99.9,0.00,North,9,0.8,1.0,-99,0.00,NA,NA,-99.99,WeatherLink_script,2013-02-10 11:40:00,
2013-02-10 06:45:00,-17.3,-99.9,0.00,NNW,337,0.8,1.0,-99,0.00,NA,NA,-99.99,WeatherLink_script,2013-02-10 11:45:00,
2013-02-10 06:50:00,-17.4,-99.9,0.00,North,9,0.7,1.0,-99,0.00,NA,NA,-99.99,WeatherLink_script,2013-02-10 11:50:00,
2013-02-10 06:56:00,-17.1,-99.9,0.00,North,0,0.7,1.0,-99,0.00,NA,NA,-99.99,WeatherLink_script,2013-02-10 11:56:00,
2013-02-10 07:01:00,-17.0,-99.9,0.00,NE,44,0.8,1.0,-99,0.00,NA,NA,-99.99,WeatherLink_script,2013-02-10 12:01:00,
2013-02-10 07:07:00,-16.7,-99.9,0.00,North,3,0.5,1.0,-99,0.00,NA,NA,-99.99,WeatherLink_script,2013-02-10 12:07:00,
2013-02-10 07:12:00,-16.5,-99.9,0.00,NW,315,0.0,1.0,-99,0.00,NA,NA,-99.99,WeatherLink_script,2013-02-10 12:12:00,
2013-02-10 07:17:00,-16.4,-99.9,0.00,NW,319,0.6,1.0,-99,0.00,NA,NA,-99.99,WeatherLink_script,2013-02-10 12:17:00,
2013-02-10 07:23:00,-17.2,-99.9,0.00,NNW,342,1.2,1.2,-99,0.00,NA,NA,-99.99,WeatherLink_script,2013-02-10 12:23:00,
2013-02-10 07:28:00,-17.6,-99.9,0.00,NNW,343,0.8,1.0,-99,0.00,NA,NA,-99.99,WeatherLink_script,2013-02-10 12:28:00,
2013-02-10 07:33:00,-13.4,-99.9,0.00,NE,44,0.0,1.0,-99,0.00,NA,NA,-99.99,WeatherLink_script,2013-02-10 12:33:00,
2013-02-10 07:39:00,-12.3,-99.9,0.00,NNE,22,0.4,1.0,-99,0.00,NA,NA,-99.99,WeatherLink_script,2013-02-10 12:39:00,
2013-02-10 07:44:00,-11.6,-99.9,0.00,SSE,156,0.3,1.0,-99,0.00,NA,NA,-99.99,WeatherLink_script,2013-02-10 12:44:00,
2013-02-10 07:49:00,-7.3,-99.9,0.00,SE,134,0.4,1.0,-99,0.00,NA,NA,-99.99,WeatherLink_script,2013-02-10 12:49:00,
2013-02-10 07:55:00,-6.5,-99.9,0.00,NNW,331,1.0,1.0,-99,0.00,NA,NA,-99.99,WeatherLink_script,2013-02-10 12:55:00,
2013-02-10 08:00:00,-5.3,-99.9,0.00,NNW,334,0.0,1.0,-99,0.00,NA,NA,-99.99,WeatherLink_script,2013-02-10 13:00:00,
2013-02-10 08:05:00,-9.4,-99.9,0.00,NNW,339,1.1,1.1,-99,0.00,NA,NA,-99.99,WeatherLink_script,2013-02-10 13:05:00,
2013-02-10 08:11:00,-8.9,-99.9,0.00,North,0,1.1,1.1,-99,0.00,NA,NA,-99.99,WeatherLink_script,2013-02-10 13:11:00,
2013-02-10 08:16:00,-11.7,-99.9,0.00,North,356,1.7,2.0,-99,0.00,NA,NA,-99.99,WeatherLink_script,2013-02-10 13:16:00,
2013-02-10 08:21:00,-10.2,-99.9,0.00,North,359,1.4,2.0,-99,0.00,NA,NA,-99.99,WeatherLink_script,2013-02-10 13:21:00,
2013-02-10 08:27:00,-8.5,-99.9,0.00,North,0,1.4,2.0,-99,0.00,NA,NA,-99.99,WeatherLink_script,2013-02-10 13:27:00,
2013-02-10 08:32:00,-8.3,-99.9,0.00,North,359,1.4,1.4,-99,0.00,NA,NA,-99.99,WeatherLink_script,2013-02-10 13:32:00,
2013-02-10 08:37:00,-6.2,-99.9,0.00,North,0,1.4,1.4,-99,0.00,NA,NA,-99.99,WeatherLink_script,2013-02-10 13:37:00,
2013-02-10 08:43:00,-6.1,-99.9,0.00,North,352,1.1,1.1,-99,0.00,NA,NA,-99.99,WeatherLink_script,2013-02-10 13:43:00,
2013-02-10 08:48:00,-3.6,-99.9,0.00,North,358,1.0,1.0,-99,0.00,NA,NA,-99.99,WeatherLink_script,2013-02-10 13:48:00,
2013-02-10 08:53:00,-0.8,-99.9,0.00,North,359,1.2,1.2,-99,0.00,NA,NA,-99.99,WeatherLink_script,2013-02-10 13:53:00,
2013-02-10 08:59:00,-0.7,-99.9,0.00,North,359,1.3,1.3,-99,0.00,NA,NA,-99.99,WeatherLink_script,2013-02-10 13:59:00,
2013-02-10 09:04:00,-0.7,-99.9,0.00,NNW,337,0.9,1.0,-99,0.00,NA,NA,-99.99,WeatherLink_script,2013-02-10 14:04:00,
2013-02-10 09:09:00,-1.1,-99.9,0.00,NW,322,1.4,1.4,-99,0.00,NA,NA,-99.99,WeatherLink_script,2013-02-10 14:09:00,
2013-02-10 09:14:00,2.5,-99.9,0.00,North,358,1.2,1.2,-99,0.00,NA,NA,-99.99,WeatherLink_script,2013-02-10 14:14:00,
2013-02-10 09:20:00,6.1,-99.9,0.00,North,359,0.7,1.0,-99,0.00,NA,NA,-99.99,WeatherLink_script,2013-02-10 14:20:00,
2013-02-10 09:25:00,7.2,-99.9,0.00,NW,319,0.9,1.0,-99,0.00,NA,NA,-99.99,WeatherLink_script,2013-02-10 14:25:00,
2013-02-10 09:30:00,6.5,-99.9,0.00,West,280,0.1,1.0,-99,0.00,NA,NA,-99.99,WeatherLink_script,2013-02-10 14:30:00,
2013-02-10 09:36:00,11.5,-99.9,0.00,NW,325,0.0,1.0,-99,0.00,NA,NA,-99.99,WeatherLink_script,2013-02-10 14:36:00,
2013-02-10 09:41:00,13.9,-99.9,0.00,NW,322,0.0,1.0,-99,0.00,NA,NA,-99.99,WeatherLink_script,2013-02-10 14:41:00,
2013-02-10 09:46:00,12.4,-99.9,0.00,NNW,340,0.8,1.0,-99,0.00,NA,NA,-99.99,WeatherLink_script,2013-02-10 14:46:00,
2013-02-10 09:52:00,13.9,-99.9,0.00,SSW,205,0.0,1.0,-99,0.00,NA,NA,-99.99,WeatherLink_script,2013-02-10 14:52:00,
2013-02-10 09:57:00,15.7,-99.9,0.00,NW,326,0.0,1.0,-99,0.00,NA,NA,-99.99,WeatherLink_script,2013-02-10 14:57:00,
2013-02-10 10:02:00,15.5,-99.9,0.00,WNW,292,0.0,1.0,-99,0.00,NA,NA,-99.99,WeatherLink_script,2013-02-10 15:02:00,
2013-02-10 10:07:00,17.2,-99.9,0.00,SSW,196,0.0,0.0,-99,0.00,NA,NA,-99.99,WeatherLink_script,2013-02-10 15:07:00,
2013-02-10 10:13:00,15.0,-99.9,0.00,South,188,0.0,1.0,-99,0.00,NA,NA,-99.99,WeatherLink_script,2013-02-10 15:13:00,
2013-02-10 10:18:00,17.6,-99.9,0.00,West,262,0.0,1.0,-99,0.00,NA,NA,-99.99,WeatherLink_script,2013-02-10 15:18:00,
2013-02-10 10:24:00,16.9,-99.9,0.00,SSW,205,0.2,1.0,-99,0.00,NA,NA,-99.99,WeatherLink_script,2013-02-10 15:24:00,
2013-02-10 10:29:00,15.2,-99.9,0.00,South,177,1.5,2.0,-99,0.00,NA,NA,-99.99,WeatherLink_script,2013-02-10 15:29:00,
2013-02-10 10:34:00,16.8,-99.9,0.00,South,170,0.0,2.0,-99,0.00,NA,NA,-99.99,WeatherLink_script,2013-02-10 15:34:00,
2013-02-10 10:40:00,20.4,-99.9,0.00,SW,233,0.0,2.0,-99,0.00,NA,NA,-99.99,WeatherLink_script,2013-02-10 15:40:00,
2013-02-10 10:45:00,22.9,-99.9,0.00,WSW,243,0.0,2.0,-99,0.00,NA,NA,-99.99,WeatherLink_script,2013-02-10 15:45:00,
2013-02-10 10:50:00,24.4,-99.9,0.00,SSE,149,0.0,0.0,-99,0.00,NA,NA,-99.99,WeatherLink_script,2013-02-10 15:50:00,
2013-02-10 10:55:00,27.1,-99.9,0.00,West,266,0.0,0.0,-99,0.00,NA,NA,-99.99,WeatherLink_script,2013-02-10 15:55:00,
2013-02-10 11:01:00,25.8,-99.9,0.00,South,186,0.3,1.0,-99,0.00,NA,NA,-99.99,WeatherLink_script,2013-02-10 16:01:00,
2013-02-10 11:06:00,24.1,-99.9,0.00,SSE,151,1.0,2.0,-99,0.00,NA,NA,-99.99,WeatherLink_script,2013-02-10 16:06:00,
2013-02-10 11:11:00,24.1,-99.9,0.00,SE,142,1.2,2.0,-99,0.00,NA,NA,-99.99,WeatherLink_script,2013-02-10 16:11:00,
2013-02-10 11:17:00,21.4,-99.9,0.00,SE,136,1.3,2.0,-99,0.00,NA,NA,-99.99,WeatherLink_script,2013-02-10 16:17:00,
2013-02-10 11:22:00,23.9,-99.9,0.00,SE,138,0.2,2.0,-99,0.00,NA,NA,-99.99,WeatherLink_script,2013-02-10 16:22:00,
2013-02-10 11:27:00,24.8,-99.9,0.00,South,180,0.0,2.0,-99,0.00,NA,NA,-99.99,WeatherLink_script,2013-02-10 16:27:00,
2013-02-10 11:33:00,28.3,-99.9,0.00,South,183,0.0,0.0,-99,0.00,NA,NA,-99.99,WeatherLink_script,2013-02-10 16:33:00,
2013-02-10 11:38:00,26.4,-99.9,0.00,South,177,1.0,1.0,-99,0.00,NA,NA,-99.99,WeatherLink_script,2013-02-10 16:38:00,
2013-02-10 11:43:00,28.3,-99.9,0.00,SSE,152,0.4,2.0,-99,0.00,NA,NA,-99.99,WeatherLink_script,2013-02-10 16:43:00,
2013-02-10 11:49:00,31.9,-99.9,0.00,SE,146,0.2,2.0,-99,0.00,NA,NA,-99.99,WeatherLink_script,2013-02-10 16:49:00,
2013-02-10 11:54:00,30.0,-99.9,0.00,South,170,1.1,2.0,-99,0.00,NA,NA,-99.99,WeatherLink_script,2013-02-10 16:54:00,
2013-02-10 11:59:00,28.9,-99.9,0.00,SE,132,1.7,2.0,-99,0.00,NA,NA,-99.99,WeatherLink_script,2013-02-10 16:59:00,
2013-02-10 12:05:00,28.1,-99.9,0.00,SE,141,2.0,2.0,-99,0.00,NA,NA,-99.99,WeatherLink_script,2013-02-10 17:05:00,
2013-02-10 12:10:00,29.1,-99.9,0.00,SSE,157,1.2,2.0,-99,0.00,NA,NA,-99.99,WeatherLink_script,2013-02-10 17:10:00,
2013-02-10 12:15:00,31.1,-99.9,0.00,SE,139,0.8,2.0,-97,0.00,NA,NA,-99.99,WeatherLink_script,2013-02-10 17:15:00,
2013-02-10 12:21:00,33.3,-99.9,0.00,SSE,159,0.2,2.0,-99,0.00,NA,NA,-99.99,WeatherLink_script,2013-02-10 17:21:00,
2013-02-10 12:26:00,35.4,-99.9,0.00,SSE,157,0.8,2.0,-93,0.00,NA,NA,-99.99,WeatherLink_script,2013-02-10 17:26:00,
2013-02-10 12:31:00,34.0,-99.9,0.00,SSE,148,0.6,2.0,-97,0.00,NA,NA,-99.99,WeatherLink_script,2013-02-10 17:31:00,
2013-02-10 12:36:00,33.9,-99.9,0.00,SSE,150,0.8,2.0,-96,0.00,NA,NA,-99.99,WeatherLink_script,2013-02-10 17:36:00,
2013-02-10 12:42:00,35.5,-99.9,0.00,ESE,122,0.7,2.0,-99,0.00,NA,NA,-99.99,WeatherLink_script,2013-02-10 17:42:00,
2013-02-10 12:47:00,39.3,-99.9,0.00,SE,131,0.5,1.0,-99,0.00,NA,NA,-99.99,WeatherLink_script,2013-02-10 17:47:00,
2013-02-10 12:53:00,37.3,-99.9,0.00,South,178,0.8,1.0,-99,0.00,NA,NA,-99.99,WeatherLink_script,2013-02-10 17:53:00,
2013-02-10 12:58:00,39.2,-99.9,0.00,NNE,33,0.0,1.0,-99,0.00,NA,NA,-99.99,WeatherLink_script,2013-02-10 17:58:00,
2013-02-10 13:03:00,35.5,-99.9,0.00,South,178,1.6,2.0,-99,0.00,NA,NA,-99.99,WeatherLink_script,2013-02-10 18:03:00,
2013-02-10 13:09:00,37.4,-99.9,0.00,SE,134,0.8,2.0,-99,0.00,NA,NA,-99.99,WeatherLink_script,2013-02-10 18:09:00,
2013-02-10 13:14:00,37.6,-99.9,0.00,SE,139,0.0,2.0,-99,0.00,NA,NA,-99.99,WeatherLink_script,2013-02-10 18:14:00,
2013-02-10 13:19:00,36.4,-99.9,0.00,South,173,1.2,2.0,-99,0.00,NA,NA,-99.99,WeatherLink_script,2013-02-10 18:19:00,
2013-02-10 13:24:00,38.2,-99.9,0.00,West,273,0.0,2.0,-99,0.00,NA,NA,-99.99,WeatherLink_script,2013-02-10 18:24:00,
2013-02-10 13:30:00,40.7,6.1,0.00,ENE,58,0.0,2.0,3,0.00,NA,NA,-99.99,WeatherLink_script,2013-02-10 18:30:00,
2013-02-10 13:35:00,40.2,-99.9,0.00,SSE,155,0.8,1.0,-98,0.00,NA,NA,-99.99,WeatherLink_script,2013-02-10 18:35:00,
2013-02-10 13:41:00,36.1,-99.9,0.00,SSE,152,0.8,2.0,-99,0.00,NA,NA,-99.99,WeatherLink_script,2013-02-10 18:41:00,
2013-02-10 13:46:00,34.6,-99.9,0.00,SSE,156,1.3,3.0,-99,0.00,NA,NA,-99.99,WeatherLink_script,2013-02-10 18:46:00,
2013-02-10 13:51:00,35.5,-99.9,0.00,SSE,159,1.1,3.0,-99,0.00,NA,NA,-99.99,WeatherLink_script,2013-02-10 18:51:00,
2013-02-10 13:56:00,37.7,-99.9,0.00,SE,127,1.5,3.0,-99,0.00,NA,NA,-99.99,WeatherLink_script,2013-02-10 18:56:00,
2013-02-10 14:02:00,36.8,-99.9,0.00,SE,133,0.5,2.0,-99,0.00,NA,NA,-99.99,WeatherLink_script,2013-02-10 19:02:00,
2013-02-10 14:07:00,36.2,-99.9,0.00,SE,141,1.6,2.0,-99,0.00,NA,NA,-99.99,WeatherLink_script,2013-02-10 19:07:00,
2013-02-10 14:12:00,36.5,-99.9,0.00,SSE,147,2.4,3.0,-99,0.00,NA,NA,-99.99,WeatherLink_script,2013-02-10 19:12:00,
2013-02-10 14:18:00,36.1,-99.9,0.00,South,169,1.6,3.0,-99,0.00,NA,NA,-99.99,WeatherLink_script,2013-02-10 19:18:00,
2013-02-10 14:23:00,37.7,-99.9,0.00,SE,137,1.4,3.0,-99,0.00,NA,NA,-99.99,WeatherLink_script,2013-02-10 19:23:00,
2013-02-10 14:28:00,37.7,-99.9,0.00,SE,135,1.0,1.0,-97,0.00,NA,NA,-99.99,WeatherLink_script,2013-02-10 19:28:00,
2013-02-10 14:34:00,39.4,-99.9,0.00,ESE,114,0.0,1.0,-99,0.00,NA,NA,-99.99,WeatherLink_script,2013-02-10 19:34:00,
2013-02-10 14:39:00,36.6,-99.9,0.00,South,172,1.9,2.0,-99,0.00,NA,NA,-99.99,WeatherLink_script,2013-02-10 19:39:00,
2013-02-10 14:45:00,40.2,-99.9,0.00,WNW,299,0.0,2.0,-87,0.00,NA,NA,-99.99,WeatherLink_script,2013-02-10 19:45:00,
2013-02-10 14:50:00,41.8,-99.9,0.00,North,356,0.0,2.0,-99,0.00,NA,NA,-99.99,WeatherLink_script,2013-02-10 19:50:00,
2013-02-10 14:55:00,41.5,-99.9,0.00,North,7,0.0,0.0,-99,0.00,NA,NA,-99.99,WeatherLink_script,2013-02-10 19:55:00,
2013-02-10 15:01:00,36.0,-99.9,0.00,SE,132,0.0,0.0,-99,0.00,NA,NA,-99.99,WeatherLink_script,2013-02-10 20:01:00,
2013-02-10 15:06:00,38.0,-99.9,0.00,North,355,0.0,0.0,-99,0.00,NA,NA,-99.99,WeatherLink_script,2013-02-10 20:06:00,
2013-02-10 15:12:00,35.7,-99.9,0.00,NNW,329,0.1,0.0,-99,0.00,NA,NA,-99.99,WeatherLink_script,2013-02-10 20:12:00,
2013-02-10 15:17:00,35.5,-99.9,0.00,North,357,0.4,0.0,-99,0.00,NA,NA,-99.99,WeatherLink_script,2013-02-10 20:17:00,
2013-02-10 15:22:00,35.0,-99.9,0.00,North,359,0.7,1.0,-99,0.00,NA,NA,-99.99,WeatherLink_script,2013-02-10 20:22:00,
2013-02-10 15:27:00,31.7,-99.9,0.00,NNW,347,0.0,1.0,-99,0.00,NA,NA,-99.99,WeatherLink_script,2013-02-10 20:27:00,
2013-02-10 15:33:00,33.0,-99.9,0.00,NNW,341,0.3,1.0,-99,0.00,NA,NA,-99.99,WeatherLink_script,2013-02-10 20:33:00,
2013-02-10 15:38:00,32.3,-99.9,0.00,North,356,0.9,1.0,-99,0.00,NA,NA,-99.99,WeatherLink_script,2013-02-10 20:38:00,
2013-02-10 15:43:00,33.8,-99.9,0.00,NNE,27,0.9,2.0,-99,0.00,NA,NA,-99.99,WeatherLink_script,2013-02-10 20:43:00,
2013-02-10 15:48:00,30.8,-99.9,0.00,NE,46,0.0,2.0,-99,0.00,NA,NA,-99.99,WeatherLink_script,2013-02-10 20:48:00,
2013-02-10 15:54:00,33.4,-99.9,0.00,North,11,0.0,2.0,-61,0.00,NA,NA,-99.99,WeatherLink_script,2013-02-10 20:54:00,
2013-02-10 15:59:00,31.7,-99.9,0.00,NW,322,0.2,0.0,-99,0.00,NA,NA,-99.99,WeatherLink_script,2013-02-10 20:59:00,
2013-02-10 16:04:00,31.1,-99.9,0.00,North,352,0.0,0.0,-66,0.00,NA,NA,-99.99,WeatherLink_script,2013-02-10 21:04:00,
2013-02-10 16:09:00,33.7,-99.9,0.00,North,2,0.0,0.0,-99,0.00,NA,NA,-99.99,WeatherLink_script,2013-02-10 21:09:00,
2013-02-10 16:14:00,34.3,-99.9,0.00,North,0,0.6,1.0,-90,0.00,NA,NA,-99.99,WeatherLink_script,2013-02-10 21:14:00,
2013-02-10 16:20:00,33.2,-99.9,0.00,NNW,343,0.0,1.0,-98,0.00,NA,NA,-99.99,WeatherLink_script,2013-02-10 21:20:00,
2013-02-10 16:25:00,31.5,-99.9,0.00,North,359,0.0,1.0,-99,0.00,NA,NA,-99.99,WeatherLink_script,2013-02-10 21:25:00,
2013-02-10 16:30:00,29.7,-99.9,0.00,North,353,0.0,0.0,-99,0.00,NA,NA,-99.99,WeatherLink_script,2013-02-10 21:30:00,
2013-02-10 16:36:00,26.6,-99.9,0.00,North,350,0.0,0.0,-99,0.00,NA,NA,-99.99,WeatherLink_script,2013-02-10 21:36:00,
2013-02-10 16:41:00,24.1,-99.9,0.00,NNW,346,0.0,0.0,-99,0.00,NA,NA,-99.99,WeatherLink_script,2013-02-10 21:41:00,
2013-02-10 16:47:00,23.1,-99.9,0.00,North,356,0.4,1.0,-99,0.00,NA,NA,-99.99,WeatherLink_script,2013-02-10 21:47:00,
2013-02-10 16:52:00,21.4,-99.9,0.00,North,0,0.0,1.0,-99,0.00,NA,NA,-99.99,WeatherLink_script,2013-02-10 21:52:00,
2013-02-10 16:57:00,20.8,-99.9,0.00,North,3,0.0,1.0,-99,0.00,NA,NA,-99.99,WeatherLink_script,2013-02-10 21:57:00,
2013-02-10 17:02:00,20.9,-99.9,0.00,NNE,16,0.0,0.0,-99,0.00,NA,NA,-99.99,WeatherLink_script,2013-02-10 22:02:00,
2013-02-10 17:08:00,20.7,-99.9,0.00,North,359,0.0,0.0,-99,0.00,NA,NA,-99.99,WeatherLink_script,2013-02-10 22:08:00,
2013-02-10 17:13:00,20.1,-99.9,0.00,NNE,22,0.0,0.0,-99,0.00,NA,NA,-99.99,WeatherLink_script,2013-02-10 22:13:00,
2013-02-10 17:18:00,20.5,-99.9,0.00,WSW,247,0.0,0.0,-99,0.00,NA,NA,-99.99,WeatherLink_script,2013-02-10 22:18:00,
2013-02-10 17:24:00,20.7,-99.9,0.00,West,277,0.0,0.0,-99,0.00,NA,NA,-99.99,WeatherLink_script,2013-02-10 22:24:00,
2013-02-10 17:29:00,19.6,-99.9,0.00,NNE,22,0.0,0.0,-99,0.00,NA,NA,-99.99,WeatherLink_script,2013-02-10 22:29:00,
2013-02-10 17:35:00,18.8,-99.9,0.00,NNE,22,0.0,0.0,-99,0.00,NA,NA,-99.99,WeatherLink_script,2013-02-10 22:35:00,
2013-02-10 17:40:00,18.6,-99.9,0.00,NNW,346,0.0,0.0,-99,0.00,NA,NA,-99.99,WeatherLink_script,2013-02-10 22:40:00,
2013-02-10 17:45:00,17.7,-99.9,0.00,North,359,1.9,2.0,-99,0.00,NA,NA,-99.99,WeatherLink_script,2013-02-10 22:45:00,
2013-02-10 17:51:00,14.4,-99.9,0.00,NNW,345,0.0,2.0,-99,0.00,NA,NA,-99.99,WeatherLink_script,2013-02-10 22:51:00,
2013-02-10 17:56:00,14.2,-99.9,0.00,NNE,19,0.1,2.0,-99,0.00,NA,NA,-99.99,WeatherLink_script,2013-02-10 22:56:00,
2013-02-10 18:02:00,15.3,-99.9,0.00,NW,315,0.0,0.0,-99,0.00,NA,NA,-99.99,WeatherLink_script,2013-02-10 23:02:00,
2013-02-10 18:07:00,15.8,-99.9,0.00,NW,315,0.0,0.0,-99,0.00,NA,NA,-99.99,WeatherLink_script,2013-02-10 23:07:00,
2013-02-10 18:12:00,15.7,-99.9,0.00,NNW,346,0.0,0.0,-99,0.00,NA,NA,-99.99,WeatherLink_script,2013-02-10 23:12:00,
2013-02-10 18:18:00,14.9,-99.9,0.00,NNW,329,0.0,0.0,-99,0.00,NA,NA,-99.99,WeatherLink_script,2013-02-10 23:18:00,
2013-02-10 18:23:00,13.7,-99.9,0.00,NNW,340,0.5,1.0,-99,0.00,NA,NA,-99.99,WeatherLink_script,2013-02-10 23:23:00,
2013-02-10 18:28:00,13.1,-99.9,0.00,NNW,343,0.1,1.0,-99,0.00,NA,NA,-99.99,WeatherLink_script,2013-02-10 23:28:00,
2013-02-10 18:33:00,13.0,-99.9,0.00,NNW,337,0.0,1.0,-99,0.00,NA,NA,-99.99,WeatherLink_script,2013-02-10 23:33:00,
2013-02-10 18:38:00,13.0,-99.9,0.00,NNW,337,0.0,0.0,-99,0.00,NA,NA,-99.99,WeatherLink_script,2013-02-10 23:38:00,
2013-02-10 18:44:00,13.1,-99.9,0.00,NNW,337,0.0,0.0,-99,0.00,NA,NA,-99.99,WeatherLink_script,2013-02-10 23:44:00,
2013-02-10 18:49:00,12.8,-99.9,0.00,North,6,0.0,0.0,-99,0.00,NA,NA,-99.99,WeatherLink_script,2013-02-10 23:49:00,
2013-02-10 18:55:00,12.1,-99.9,0.00,NNW,337,0.0,0.0,-99,0.00,NA,NA,-99.99,WeatherLink_script,2013-02-10 23:55:00,
2013-02-10 19:00:00,12.2,-99.9,0.00,NNW,337,0.0,0.0,-99,0.00,NA,NA,-99.99,WeatherLink_script,2013-02-11 00:00:00,
2013-02-10 19:05:00,12.4,-99.9,0.00,NNW,337,0.0,0.0,-99,0.00,NA,NA,-99.99,WeatherLink_script,2013-02-11 00:05:00,
2013-02-10 19:10:00,12.4,-99.9,0.00,NW,315,0.0,0.0,-99,0.00,NA,NA,-99.99,WeatherLink_script,2013-02-11 00:10:00,
2013-02-10 19:16:00,12.1,-99.9,0.00,NW,315,0.0,0.0,-99,0.00,NA,NA,-99.99,WeatherLink_script,2013-02-11 00:16:00,
2013-02-10 19:21:00,10.8,-99.9,0.00,NNW,341,0.0,0.0,-99,0.00,NA,NA,-99.99,WeatherLink_script,2013-02-11 00:21:00,
2013-02-10 19:26:00,10.6,-99.9,0.00,North,0,0.0,0.0,-99,0.00,NA,NA,-99.99,WeatherLink_script,2013-02-11 00:26:00,
2013-02-10 19:32:00,10.8,-99.9,0.00,NE,44,0.0,0.0,-99,0.00,NA,NA,-99.99,WeatherLink_script,2013-02-11 00:32:00,
2013-02-10 19:37:00,10.2,-99.9,0.00,NW,314,0.0,0.0,-99,0.00,NA,NA,-99.99,WeatherLink_script,2013-02-11 00:37:00,
2013-02-10 19:42:00,10.2,-99.9,0.00,NW,314,0.0,0.0,-99,0.00,NA,NA,-99.99,WeatherLink_script,2013-02-11 00:42:00,
2013-02-10 19:48:00,10.3,-99.9,0.00,NW,314,0.0,0.0,-99,0.00,NA,NA,-99.99,WeatherLink_script,2013-02-11 00:48:00,
2013-02-10 19:53:00,10.3,-99.9,0.00,North,358,0.0,0.0,-99,0.00,NA,NA,-99.99,WeatherLink_script,2013-02-11 00:53:00,
2013-02-10 19:58:00,8.9,-99.9,0.00,NE,38,0.9,1.0,-99,0.00,NA,NA,-99.99,WeatherLink_script,2013-02-11 00:58:00,
2013-02-10 20:04:00,8.2,-99.9,0.00,NNW,339,0.0,1.0,-99,0.00,NA,NA,-99.99,WeatherLink_script,2013-02-11 01:04:00,
2013-02-10 20:09:00,7.6,-99.9,0.00,NW,316,1.2,1.2,-99,0.00,NA,NA,-99.99,WeatherLink_script,2013-02-11 01:09:00,
2013-02-10 20:14:00,8.9,-99.9,0.00,NNE,15,0.0,0.0,-99,0.00,NA,NA,-99.99,WeatherLink_script,2013-02-11 01:14:00,
2013-02-10 20:20:00,8.1,-99.9,0.00,SE,135,0.0,0.0,-99,0.00,NA,NA,-99.99,WeatherLink_script,2013-02-11 01:20:00,
2013-02-10 20:25:00,7.7,-99.9,0.00,NNW,330,0.9,1.0,-99,0.00,NA,NA,-99.99,WeatherLink_script,2013-02-11 01:25:00,
2013-02-10 20:30:00,6.1,-99.9,0.00,North,353,0.7,1.0,-99,0.00,NA,NA,-99.99,WeatherLink_script,2013-02-11 01:30:00,
2013-02-10 20:36:00,7.2,-99.9,0.00,NE,40,0.1,1.0,-99,0.00,NA,NA,-99.99,WeatherLink_script,2013-02-11 01:36:00,
2013-02-10 20:41:00,5.5,-99.9,0.00,NNW,344,0.5,1.0,-99,0.00,NA,NA,-99.99,WeatherLink_script,2013-02-11 01:41:00,
2013-02-10 20:46:00,5.1,-99.9,0.00,NNW,337,0.0,0.0,-99,0.00,NA,NA,-99.99,WeatherLink_script,2013-02-11 01:46:00,
2013-02-10 20:52:00,5.8,-99.9,0.00,NNW,337,0.0,0.0,-99,0.00,NA,NA,-99.99,WeatherLink_script,2013-02-11 01:52:00,
2013-02-10 20:57:00,5.8,-99.9,0.00,North,359,0.0,0.0,-99,0.00,NA,NA,-99.99,WeatherLink_script,2013-02-11 01:57:00,
2013-02-10 21:02:00,5.9,-99.9,0.00,North,7,0.0,0.0,-99,0.00,NA,NA,-99.99,WeatherLink_script,2013-02-11 02:02:00,
2013-02-10 21:08:00,5.0,-99.9,0.00,NNW,339,0.0,0.0,-99,0.00,NA,NA,-99.99,WeatherLink_script,2013-02-11 02:08:00,
2013-02-10 21:13:00,3.5,-99.9,0.00,NNW,337,0.0,0.0,-99,0.00,NA,NA,-99.99,WeatherLink_script,2013-02-11 02:13:00,
2013-02-10 21:18:00,3.3,-99.9,0.00,NNW,337,0.0,0.0,-99,0.00,NA,NA,-99.99,WeatherLink_script,2013-02-11 02:18:00,
2013-02-10 21:24:00,3.2,-99.9,0.00,North,352,0.0,0.0,-99,0.00,NA,NA,-99.99,WeatherLink_script,2013-02-11 02:24:00,
2013-02-10 21:29:00,3.2,-99.9,0.00,NE,34,0.0,0.0,-99,0.00,NA,NA,-99.99,WeatherLink_script,2013-02-11 02:29:00,
2013-02-10 21:34:00,3.5,-99.9,0.00,North,0,0.0,0.0,-99,0.00,NA,NA,-99.99,WeatherLink_script,2013-02-11 02:34:00,
2013-02-10 21:40:00,3.4,-99.9,0.00,North,359,0.0,0.0,-99,0.00,NA,NA,-99.99,WeatherLink_script,2013-02-11 02:40:00,
2013-02-10 21:45:00,3.5,-99.9,0.00,WNW,300,0.0,0.0,-99,0.00,NA,NA,-99.99,WeatherLink_script,2013-02-11 02:45:00,
2013-02-10 21:50:00,4.0,-99.9,0.00,WNW,292,0.0,0.0,-99,0.00,NA,NA,-99.99,WeatherLink_script,2013-02-11 02:50:00,
2013-02-10 21:55:00,3.9,-99.9,0.00,North,359,0.0,0.0,-99,0.00,NA,NA,-99.99,WeatherLink_script,2013-02-11 02:55:00,
2013-02-10 22:01:00,3.5,-99.9,0.00,North,358,0.0,0.0,-99,0.00,NA,NA,-99.99,WeatherLink_script,2013-02-11 03:01:00,
2013-02-10 22:06:00,3.0,-99.9,0.00,NNW,336,0.0,0.0,-99,0.00,NA,NA,-99.99,WeatherLink_script,2013-02-11 03:06:00,
2013-02-10 22:11:00,2.4,-99.9,0.00,NW,315,0.0,0.0,-99,0.00,NA,NA,-99.99,WeatherLink_script,2013-02-11 03:11:00,
2013-02-10 22:17:00,2.5,-99.9,0.00,NW,315,0.0,0.0,-99,0.00,NA,NA,-99.99,WeatherLink_script,2013-02-11 03:17:00,
2013-02-10 22:22:00,2.5,-99.9,0.00,SSE,158,0.0,0.0,-99,0.00,NA,NA,-99.99,WeatherLink_script,2013-02-11 03:22:00,
2013-02-10 22:28:00,2.9,-99.9,0.00,SSW,202,0.0,0.0,-99,0.00,NA,NA,-99.99,WeatherLink_script,2013-02-11 03:28:00,
2013-02-10 22:33:00,3.0,-99.9,0.00,SSW,202,0.0,0.0,-99,0.00,NA,NA,-99.99,WeatherLink_script,2013-02-11 03:33:00,
2013-02-10 22:38:00,2.1,-99.9,0.00,South,180,0.0,0.0,-99,0.00,NA,NA,-99.99,WeatherLink_script,2013-02-11 03:38:00,
2013-02-10 22:44:00,2.3,-99.9,0.00,WSW,247,0.0,0.0,-99,0.00,NA,NA,-99.99,WeatherLink_script,2013-02-11 03:44:00,
2013-02-10 22:49:00,2.4,-99.9,0.00,SE,135,0.0,0.0,-99,0.00,NA,NA,-99.99,WeatherLink_script,2013-02-11 03:49:00,
2013-02-10 22:54:00,1.8,-99.9,0.00,SE,135,0.0,0.0,-99,0.00,NA,NA,-99.99,WeatherLink_script,2013-02-11 03:54:00,
2013-02-10 23:00:00,1.7,-99.9,0.00,SE,135,0.0,0.0,-99,0.00,NA,NA,-99.99,WeatherLink_script,2013-02-11 04:00:00,
2013-02-10 23:05:00,1.5,-99.9,0.00,North,359,0.0,0.0,-99,0.00,NA,NA,-99.99,WeatherLink_script,2013-02-11 04:05:00,
2013-02-10 23:11:00,1.8,-99.9,0.00,NW,315,0.0,0.0,-99,0.00,NA,NA,-99.99,WeatherLink_script,2013-02-11 04:11:00,
2013-02-10 23:16:00,2.2,-99.9,0.00,NW,315,0.0,0.0,-99,0.00,NA,NA,-99.99,WeatherLink_script,2013-02-11 04:16:00,
2013-02-10 23:21:00,1.9,-99.9,0.00,North,358,0.0,0.0,-99,0.00,NA,NA,-99.99,WeatherLink_script,2013-02-11 04:21:00,
2013-02-10 23:32:00,-1.0,-99.9,0.00,NNW,340,0.0,0.0,-99,0.00,NA,NA,-99.99,WeatherLink_script,2013-02-11 04:32:00,
2013-02-10 23:37:00,-0.5,-99.9,0.00,NNW,337,0.0,0.0,-99,0.00,NA,NA,-99.99,WeatherLink_script,2013-02-11 04:37:00,
2013-02-10 23:43:00,-0.1,-99.9,0.00,North,3,0.0,0.0,-99,0.00,NA,NA,-99.99,WeatherLink_script,2013-02-11 04:43:00,
2013-02-10 23:48:00,0.6,-99.9,0.00,ENE,67,0.0,0.0,-99,0.00,NA,NA,-99.99,WeatherLink_script,2013-02-11 04:48:00,
2013-02-10 23:53:00,0.2,-99.9,0.00,NNW,343,0.0,0.0,-99,0.00,NA,NA,-99.99,WeatherLink_script,2013-02-11 04:53:00,
2013-02-10 23:59:00,-0.1,-99.9,0.00,NNW,337,0.0,0.0,-99,0.00,NA,NA,-99.99,WeatherLink_script,2013-02-11 04:59:00,